This demonstration page uses our WeatherBlox Daily Observations layout. Learn more.

Left ArrowRight Arrow

40.92945, -100.16068

Hourly Observations for April 6, 2021

Temp ( °F °C ) Dew Point ( °F °C ) Humidity (%) Winds ( mph kmh ) Pressure ( in mb ) Visibility ( mi km ) Precip ( " mm )
12:15 am 00:15 Clear 67 19.5 51 10.8 57 57 SSE 16 26 29.48 998 10 16 0.00 0.00
12:35 am 00:35 Clear 66 18.8 51 10.8 60 60 SSE 15 24 29.48 998 10 16 0.00 0.00
12:55 am 00:55 Clear 65 18.6 52 11 61 61 S 16 26 29.48 998 10 16 0.00 0.00
1:15 am 01:15 Clear 66 18.7 52 11 61 61 S 18 30 29.47 998 10 16 0.00 0.00
1:35 am 01:35 Clear 65 18.3 52 11 63 63 S 13 20 29.48 998 10 16 0.00 0.00
1:55 am 01:55 Clear 64 18 51 10.8 63 63 SSE 7 11 29.49 999 10 16 0.00 0.00
2:15 am 02:15 Clear 62 16.5 51 10.4 67 67 ENE 7 11 29.50 999 10 16 0.00 0.00
2:35 am 02:35 Clear 61 16 51 10.6 71 71 E 7 11 29.51 999 10 16 0.00 0.00
2:55 am 02:55 Clear 59 14.8 51 10.3 75 75 E 9 15 29.51 999 10 16 0.00 0.00
3:15 am 03:15 Clear 60 15.6 51 10.6 72 72 E 10 17 29.50 999 10 16 0.00 0.00
3:35 am 03:35 Clear 61 16.2 52 11 71 71 ESE 9 15 29.50 999 10 16 0.00 0.00
3:55 am 03:55 Clear 62 16.5 52 11.1 71 71 ESE 9 15 29.48 998 10 16 0.00 0.00
4:15 am 04:15 Clear 59 15.2 52 11.1 77 77 E 8 13 29.48 998 10 16 0.00 0.00
4:35 am 04:35 Clear 60 15.4 52 11.1 76 76 E 12 19 29.48 998 10 16 0.00 0.00
4:55 am 04:55 Clear 60 15.7 52 11.1 74 74 ESE 9 15 29.47 998 10 16 0.00 0.00
5:15 am 05:15 Clear 59 15 52 11 77 77 E 6 9 29.49 999 10 16 0.00 0.00
5:35 am 05:35 Clear 59 14.9 52 11 78 78 E 9 15 29.49 999 10 16 0.00 0.00
5:55 am 05:55 Clear 61 16 52 11.2 73 73 ESE 13 20 29.47 998 10 16 0.00 0.00
6:15 am 06:15 Clear 61 16.3 52 11.2 72 72 ESE 8 13 29.47 998 10 16 0.00 0.00
6:35 am 06:35 Clear 62 16.5 53 11.5 72 72 ESE 12 19 29.46 998 10 16 0.00 0.00
6:55 am 06:55 Clear 61 16.2 53 11.5 74 74 ESE 9 15 29.48 998 10 16 0.00 0.00
7:15 am 07:15 Sunny 59 15 52 11.2 78 78 E 13 20 29.47 998 10 16 0.00 0.00
7:35 am 07:35 Sunny 59 15.1 53 11.5 79 79 ESE 9 15 29.48 998 10 16 0.00 0.00
7:55 am 07:55 Sunny 59 15.2 53 11.5 79 79 ESE 14 22 29.46 998 10 16 0.00 0.00
8:15 am 08:15 Sunny 59 14.8 53 11.5 81 81 ESE 14 22 29.47 998 10 16 0.00 0.00
8:35 am 08:35 Sunny 60 15.3 53 11.6 79 79 SE 16 26 29.47 998 10 16 0.00 0.00
8:55 am 08:55 Sunny 61 16 53 11.9 77 77 SE 14 22 29.47 998 10 16 0.00 0.00
9:15 am 09:15 Sunny 62 16.7 54 12 74 74 SE 18 30 29.46 998 10 16 0.00 0.00
9:35 am 09:35 Sunny 63 17.1 54 12 72 72 SE 16 26 29.45 997 10 16 0.00 0.00
9:55 am 09:55 Sunny 64 17.9 54 12.1 69 69 SE 17 28 29.43 997 10 16 0.00 0.00
10:15 am 10:15 Sunny 65 18.1 54 12 68 68 SE 18 30 29.44 997 10 16 0.00 0.00
10:35 am 10:35 Partly Cloudy 65 18.6 54 12 66 66 SE 17 28 29.44 997 10 16 0.00 0.00
10:55 am 10:55 Partly Cloudy 67 19.3 53 11.9 62 62 SE 16 26 29.42 996 10 16 0.00 0.00
11:15 am 11:15 Sunny 68 19.8 53 11.8 60 60 SSE 16 26 29.42 996 10 16 0.00 0.00
11:35 am 11:35 Sunny 68 20.2 52 11.3 57 57 SE 13 20 29.41 996 10 16 0.00 0.00
11:55 am 11:55 Sunny 69 20.5 53 11.6 57 57 SE 14 22 29.40 996 10 16 0.00 0.00
12:15 pm 12:15 Sunny 70 21.1 53 11.6 55 55 SE 15 24 29.40 996 10 16 0.00 0.00
12:35 pm 12:35 Sunny 71 21.7 53 11.8 53 53 SE 15 24 29.41 996 10 16 0.00 0.00
12:55 pm 12:55 Partly Cloudy 72 22.1 53 11.8 52 52 SE 16 26 29.41 996 10 16 0.00 0.00
1:15 pm 13:15 Partly Cloudy 71 21.9 54 12 54 54 ESE 16 26 29.41 996 10 16 0.00 0.00
1:35 pm 13:35 Mostly Cloudy 74 23.2 55 12.6 51 51 SE 15 24 29.38 995 10 16 0.00 0.00
1:55 pm 13:55 Mostly Cloudy 73 23 54 12.3 51 51 SE 16 26 29.37 995 10 16 0.00 0.00
2:15 pm 14:15 Cloudy 74 23.2 54 12.4 51 51 ESE 16 26 29.37 994 10 16 0.00 0.00
2:35 pm 14:35 Mostly Cloudy 76 24.6 55 12.8 48 48 ESE 16 26 29.34 993 10 16 0.00 0.00
2:55 pm 14:55 Mostly Cloudy 76 24.4 55 12.6 48 48 SE 20 31 29.34 993 10 16 0.00 0.00
3:15 pm 15:15 Cloudy 76 24.5 55 12.7 48 48 SE 18 30 29.34 993 10 16 0.00 0.00
3:35 pm 15:35 Cloudy 75 23.7 55 12.9 51 51 ESE 15 24 29.34 994 10 16 0.00 0.00
3:55 pm 15:55 Mostly Cloudy 76 24.3 56 13.1 50 50 SE 17 28 29.33 993 10 16 0.00 0.00
4:15 pm 16:15 Cloudy 77 24.9 55 13 48 48 ESE 16 26 29.32 993 10 16 0.00 0.00
4:35 pm 16:35 Mostly Cloudy 76 24.7 55 12.6 47 47 SE 18 30 29.31 993 10 16 0.00 0.00
4:55 pm 16:55 Cloudy 75 24 55 12.5 49 49 ESE 17 28 29.32 993 10 16 0.00 0.00
5:15 pm 17:15 Cloudy 76 24.2 55 12.9 49 49 ESE 20 31 29.32 993 10 16 0.00 0.00
5:35 pm 17:35 Mostly Cloudy with Nearby Thunderstorms 73 23 55 13 53 53 SE 16 26 29.33 993 10 16 0.00 0.00
5:55 pm 17:55 Cloudy with Light Rain 59 15 43 6.3 56 56 NW 38 61 29.46 998 4 6 0.00 0.00
6:15 pm 18:15 Cloudy with Light Rain 53 11.6 44 6.8 73 73 N 30 48 29.53 1000 10 16 0.01 0.25
6:35 pm 18:35 Cloudy with Light Rain 51 10.3 44 6.6 78 78 N 29 46 29.54 1000 10 16 0.02 0.51
6:55 pm 18:55 Cloudy with Snow 45 7.3 43 6 92 92 N 29 46 29.60 1002 0 0 0.57 14.48
7:15 pm 19:15 Cloudy 46 8 42 5.7 86 86 NNW 30 48 29.60 1002 10 16 0.00 0.00
7:35 pm 19:35 Cloudy with Nearby Thunderstorms 47 8.4 42 5.8 84 84 NNW 23 37 29.63 1003 10 16 0.00 0.00
7:55 pm 19:55 Cloudy 47 8.5 43 5.9 84 84 NNW 21 33 29.63 1004 10 16 0.00 0.00
8:15 pm 20:15 Cloudy 46 7.8 42 5.6 86 86 NNW 24 39 29.65 1004 10 16 0.00 0.00
8:35 pm 20:35 Cloudy 45 7.2 41 5.2 87 87 NNW 21 33 29.67 1005 10 16 0.00 0.00
8:55 pm 20:55 Cloudy 44 6.7 40 4.7 87 87 NNW 26 43 29.69 1005 10 16 0.00 0.00
9:15 pm 21:15 Cloudy 43 6.2 40 4.2 87 87 NNW 29 46 29.70 1006 10 16 0.00 0.00
9:35 pm 21:35 Cloudy 42 5.6 39 4 90 90 NNW 26 43 29.72 1006 10 16 0.00 0.00
9:55 pm 21:55 Cloudy 41 5.2 39 3.7 90 90 NNW 26 43 29.74 1007 10 16 0.00 0.00
10:15 pm 22:15 Cloudy 41 4.8 38 3.5 91 91 NNW 28 44 29.76 1008 10 16 0.00 0.00
10:35 pm 22:35 Cloudy 40 4.6 37 2.9 89 89 NNW 31 50 29.77 1008 10 16 0.00 0.00
10:55 pm 22:55 Cloudy 40 4.6 37 2.8 88 88 NNW 24 39 29.76 1008 10 16 0.00 0.00
11:15 pm 23:15 Cloudy 40 4.5 37 2.6 88 88 NNW 28 44 29.78 1009 10 16 0.00 0.00
11:35 pm 23:35 Cloudy 40 4.5 36 2.4 86 86 NNW 24 39 29.78 1009 10 16 0.00 0.00
11:55 pm 23:55 Cloudy 40 4.6 37 2.6 87 87 NNW 20 31 29.80 1009 10 16 0.00 0.00

Powered by AerisWeather